This is the latest recevied weather packets stored in our database for station/object 9W2CHF-4. If no packets are shown the sender has not sent any weather packets the latest 10 day(s).
| Time | Temp. | Humidity | Pressure | Rain* | Wind** | Luminosity | Snow |
|---|---|---|---|---|---|---|---|
| 1777290795 | 33.33° C | 87% | 1009.5 hPa | - | - | - | - |
| 1777289895 | 33.33° C | 86% | 1009.2 hPa | - | - | - | - |
| 1777288995 | 33.89° C | 81% | 1008.9 hPa | - | - | - | - |
| 1777288095 | 33.89° C | 77% | 1008.5 hPa | - | - | - | - |
| 1777287195 | 34.44° C | 76% | 1008.2 hPa | - | - | - | - |
| 1777286295 | 34.44° C | 75% | 1008.1 hPa | - | - | - | - |
| 1777285395 | 34.44° C | 75% | 1007.9 hPa | - | - | - | - |
| 1777284494 | 34.44° C | 74% | 1007.9 hPa | - | - | - | - |
| 1777283594 | 34.44° C | 73% | 1007.9 hPa | - | - | - | - |
| 1777282694 | 34.44° C | 71% | 1007.8 hPa | - | - | - | - |
| 1777281793 | 34.44° C | 63% | 1007.7 hPa | - | - | - | - |
| 1777280893 | 34.44° C | 63% | 1007.7 hPa | - | - | - | - |
| 1777279998 | 34.44° C | 65% | 1007.7 hPa | - | - | - | - |
| 1777279098 | 35° C | 72% | 1007.7 hPa | - | - | - | - |
| 1777278198 | 34.44° C | 73% | 1007.6 hPa | - | - | - | - |
| 1777277298 | 34.44° C | 72% | 1007.7 hPa | - | - | - | - |
| 1777276398 | 35° C | 71% | 1007.7 hPa | - | - | - | - |
| 1777275498 | 35° C | 69% | 1007.6 hPa | - | - | - | - |
| 1777274597 | 34.44° C | 71% | 1007.8 hPa | - | - | - | - |
| 1777273697 | 34.44° C | 70% | 1007.9 hPa | - | - | - | - |
| 1777272797 | 34.44° C | 70% | 1008 hPa | - | - | - | - |
| 1777271896 | 34.44° C | 71% | 1008 hPa | - | - | - | - |
| 1777270996 | 34.44° C | 63% | 1008.5 hPa | - | - | - | - |
| 1777270095 | 34.44° C | 58% | 1008.9 hPa | - | - | - | - |
| 1777269195 | 34.44° C | 60% | 1008.8 hPa | - | - | - | - |
* Rain since midnight (hover to see other rain measurements)
** Current wind speed in m/s (hover to see current wind gust speed)